Weather History for Parkersburg, WV

Change the Weather History Date:

Sunday, December 9, 2012

  Actual Average Record
Temperature  
Mean Temperature 52 °F 37 °F  
Max Temperature 60 °F 45 °F 72 °F (1952)
Min Temperature 44 °F 29 °F 5 °F (1958)
Degree Days  
Heating Degree Days 13 28  
Month to date heating degree days 140 243  
Since 1 July heating degree days 1287 1228  
Growing Degree Days 2 (Base 50)    
Moisture  
Dew Point 47 °F    
Average Humidity 87    
Maximum Humidity 93    
Minimum Humidity 80    
Precipitation  
Precipitation 0.55 in 0.11 in 0.71 in (2007)
Month to date precipitation 2.93 0.95  
Year to date precipitation 39.48 39.04  
Sea Level Pressure  
Sea Level Pressure 30.01 in    
Wind  
Wind Speed 7 mph (ENE)    
Max Wind Speed 13 mph    
Max Gust Speed 20 mph    
Visibility 6 miles    
Events Rain    
T = Trace of Precipitation, MM = Missing Value Source: NWS Daily Summary

Daily Weather History Graph

Daily Weather History Graph

Search for Another Location

Airport:

Trip Planner

Search our weather history database for the weather conditions in past years. The results will help you decide how hot, cold, wet, or windy it might be!

Date:

Astronomy

Dec. 09, 2012 Rise Set
Actual Time 7:34 AM EST 5:02 PM EST
Civil Twilight 7:04 AM EST 5:32 PM EST
Nautical Twilight 6:30 AM EST 6:05 PM EST
Astronomical Twilight 5:58 AM EST 6:38 PM EST
Moon 3:06 AM EST (12/9) 2:07 PM EST (12/9)
Length of Visible Light 10h 28m
Length of Day
9h 28m
Waning Crescent, 19% of the Moon is Illuminated
Dec 9
Waning Crescent
Dec 13
New
Dec 20
First Quarter
Dec 28
Full
Jan 4
Last Quarter

Hourly Weather History & Observations

Time (EST) Temp. Windchill Dew Point Humidity Pressure Visibility Wind Dir Wind Speed Gust Speed Precip Events Conditions
12:09 AM 50.0 °F - 46.4 °F 87% 30.06 in 8.0 mi North 6.9 mph - N/A   Overcast
12:53 AM 50.0 °F - 44.1 °F 80% 30.07 in 9.0 mi NNE 11.5 mph - N/A   Overcast
1:24 AM 48.2 °F - 44.6 °F 87% 30.07 in 10.0 mi NE 10.4 mph - N/A   Overcast
1:53 AM 48.0 °F - 44.1 °F 86% 30.07 in 10.0 mi NNE 8.1 mph - N/A   Overcast
2:07 AM 48.2 °F - 44.6 °F 87% 30.07 in 9.0 mi NNE 6.9 mph - 0.00 in Rain Light Rain
2:53 AM 46.9 °F - 44.1 °F 90% 30.09 in 3.0 mi North 8.1 mph - 0.03 in Rain Rain
3:11 AM 46.4 °F 44.3 °F 44.6 °F 93% 30.09 in 6.0 mi Variable 4.6 mph - 0.00 in Rain Light Rain
3:53 AM 46.0 °F 41.9 °F 43.0 °F 89% 30.08 in 4.0 mi NNE 8.1 mph - 0.03 in Rain Light Rain
4:53 AM 45.0 °F 40.1 °F 43.0 °F 93% 30.07 in 5.0 mi NE 9.2 mph - 0.01 in Rain Light Rain
5:53 AM 45.0 °F 41.8 °F 42.1 °F 90% 30.09 in 7.0 mi North 5.8 mph - 0.02 in Rain Light Rain
6:17 AM 44.6 °F 40.7 °F 42.8 °F 93% 30.09 in 6.0 mi NNE 6.9 mph - 0.01 in Rain Light Rain
6:53 AM 44.1 °F 40.1 °F 42.1 °F 93% 30.09 in 5.0 mi NE 6.9 mph - 0.03 in Rain Light Rain
7:05 AM 44.6 °F 40.7 °F 42.8 °F 93% 30.08 in 6.0 mi ENE 6.9 mph - 0.01 in Rain Light Rain
7:25 AM 44.6 °F 41.4 °F 42.8 °F 93% 30.09 in 2.0 mi NE 5.8 mph - 0.08 in Rain Rain
7:53 AM 44.1 °F 40.8 °F 42.1 °F 93% 30.10 in 3.0 mi NNE 5.8 mph - 0.14 in Rain Light Rain
8:14 AM 44.6 °F 41.4 °F 42.8 °F 93% 30.09 in 1.8 mi ENE 5.8 mph - 0.02 in Rain Light Rain
8:27 AM 44.6 °F - 42.8 °F 93% 30.10 in 3.0 mi Calm Calm - 0.02 in Rain Light Rain
8:53 AM 44.1 °F 41.5 °F 42.1 °F 93% 30.10 in 3.0 mi NE 4.6 mph - 0.02 in   Overcast
9:53 AM 45.0 °F 41.2 °F 43.0 °F 93% 30.08 in 6.0 mi East 6.9 mph - N/A   Overcast
10:53 AM 46.0 °F 43.1 °F 44.1 °F 93% 30.06 in 6.0 mi East 5.8 mph - N/A   Overcast
11:53 AM 46.9 °F - 45.0 °F 93% 30.03 in 5.0 mi East 5.8 mph - N/A   Overcast
12:53 PM 48.0 °F - 46.0 °F 93% 29.99 in 5.0 mi East 4.6 mph - N/A   Overcast
1:53 PM 48.9 °F - 46.9 °F 93% 29.96 in 3.0 mi Calm Calm - 0.02 in Rain Light Rain
2:32 PM 50.0 °F - 48.2 °F 94% 29.95 in 1.5 mi Calm Calm - 0.03 in Rain Light Rain
2:53 PM 50.0 °F - 48.0 °F 93% 29.95 in 1.0 mi East 6.9 mph - 0.11 in Rain Heavy Rain
3:29 PM 51.8 °F - 50.0 °F 94% 29.94 in 1.5 mi ESE 3.5 mph - 0.00 in   Overcast
3:53 PM 52.0 °F - 51.1 °F 97% 29.93 in 6.0 mi ESE 4.6 mph - 0.00 in   Mostly Cloudy
4:53 PM 55.9 °F - 54.0 °F 93% 29.91 in 9.0 mi SSE 8.1 mph - N/A   Scattered Clouds
5:53 PM 57.0 °F - 54.0 °F 89% 29.90 in 10.0 mi South 9.2 mph - 0.00 in Rain Light Rain
6:53 PM 57.9 °F - 55.0 °F 90% 29.90 in 7.0 mi South 8.1 mph - 0.02 in Rain Light Rain
7:53 PM 59.0 °F - 55.0 °F 87% 29.88 in 10.0 mi South 8.1 mph - 0.00 in   Overcast
8:53 PM 57.9 °F - 55.0 °F 90% 29.86 in 10.0 mi South 8.1 mph - N/A   Overcast
9:53 PM 59.0 °F - 55.0 °F 87% 29.83 in 10.0 mi South 10.4 mph - N/A   Mostly Cloudy
10:53 PM 59.0 °F - 55.0 °F 87% 29.81 in 10.0 mi South 10.4 mph - 0.01 in Rain Light Rain
11:53 PM 59.0 °F - 55.9 °F 90% 29.78 in 6.0 mi South 5.8 mph - 0.04 in Rain Light Rain